Time,TemperatureF,DewpointF,PressureIn,WindDirection,WindDirectionDegrees,WindSpeedMPH,WindSpeedGustMPH,Humidity,HourlyPrecipIn,Conditions,Clouds,dailyrainin,SoftwareType,DateUTC
2013-06-01 00:03:00,70.0,59.0,30.07,East,85,1.0,0.0,68,0.00,,,0.20,,2013-06-01 04:03:00,
2013-06-01 00:12:00,70.0,59.0,30.07,SW,225,1.0,5.0,69,0.00,,,0.20,,2013-06-01 04:12:00,
2013-06-01 00:23:00,70.0,59.0,30.07,SW,225,1.0,5.0,69,0.00,,,0.20,,2013-06-01 04:23:00,
2013-06-01 00:33:00,70.0,59.0,30.07,South,170,1.0,5.0,69,0.00,,,0.20,,2013-06-01 04:33:00,
2013-06-01 00:42:00,70.0,60.0,30.07,SSE,160,0.0,0.0,71,0.00,,,0.20,,2013-06-01 04:42:00,
2013-06-01 00:53:00,70.0,60.0,30.07,SSE,160,0.0,0.0,71,0.00,,,0.20,,2013-06-01 04:53:00,
2013-06-01 01:02:00,69.0,59.0,30.07,SSW,200,0.0,0.0,71,0.00,,,0.20,,2013-06-01 05:02:00,
2013-06-01 01:12:00,69.0,59.0,30.07,SSW,200,0.0,0.0,71,0.00,,,0.20,,2013-06-01 05:12:00,
2013-06-01 01:22:00,69.0,59.0,30.07,SSE,150,0.0,0.0,71,0.00,,,0.20,,2013-06-01 05:22:00,
2013-06-01 01:32:00,69.0,59.0,30.07,SE,145,0.0,2.0,70,0.00,,,0.20,,2013-06-01 05:32:00,
2013-06-01 01:42:00,68.0,58.0,30.04,SW,230,1.0,2.0,70,0.00,,,0.18,,2013-06-01 05:42:00,
2013-06-01 01:52:00,68.0,58.0,30.04,SW,230,1.0,2.0,70,0.00,,,0.18,,2013-06-01 05:52:00,
2013-06-01 02:01:00,68.0,58.0,30.04,South,180,0.0,0.0,71,0.00,,,0.18,,2013-06-01 06:01:00,
2013-06-01 02:12:00,68.0,59.0,30.04,SSW,205,0.0,3.0,73,0.00,,,0.18,,2013-06-01 06:12:00,
2013-06-01 02:22:00,68.0,59.0,30.04,SSW,205,0.0,3.0,73,0.00,,,0.18,,2013-06-01 06:22:00,
2013-06-01 02:32:00,68.0,59.0,30.04,ESE,105,0.0,0.0,74,0.00,,,0.18,,2013-06-01 06:32:00,
2013-06-01 02:42:00,68.0,60.0,30.04,SSE,165,0.0,5.0,75,0.00,,,0.18,,2013-06-01 06:42:00,
2013-06-01 02:52:00,68.0,60.0,30.04,SSE,165,0.0,5.0,75,0.00,,,0.18,,2013-06-01 06:52:00,
2013-06-01 03:01:00,68.0,60.0,30.04,SE,140,1.0,5.0,75,0.00,,,0.18,,2013-06-01 07:01:00,
2013-06-01 03:11:00,68.0,60.0,30.04,SE,140,1.0,5.0,75,0.00,,,0.18,,2013-06-01 07:11:00,
2013-06-01 03:22:00,69.0,61.0,30.04,SSW,205,1.0,3.0,75,0.00,,,0.18,,2013-06-01 07:22:00,
2013-06-01 03:32:00,69.0,60.0,30.04,SSE,150,2.0,2.0,74,0.00,,,0.18,,2013-06-01 07:32:00,
2013-06-01 03:42:00,69.0,61.0,30.04,ENE,70,0.0,1.0,75,0.00,,,0.18,,2013-06-01 07:42:00,
2013-06-01 03:52:00,69.0,61.0,30.04,ENE,70,0.0,1.0,75,0.00,,,0.18,,2013-06-01 07:52:00,
2013-06-01 04:02:00,69.0,61.0,30.04,SE,145,0.0,2.0,76,0.00,,,0.18,,2013-06-01 08:02:00,
2013-06-01 04:11:00,69.0,61.0,30.04,North,350,0.0,2.0,76,0.00,,,0.18,,2013-06-01 08:11:00,
2013-06-01 04:22:00,69.0,61.0,30.04,North,350,0.0,2.0,76,0.00,,,0.18,,2013-06-01 08:22:00,
2013-06-01 04:32:00,69.0,61.0,30.04,NW,305,1.0,5.0,77,0.00,,,0.18,,2013-06-01 08:32:00,
2013-06-01 04:42:00,69.0,61.0,30.04,SSW,200,1.0,6.0,77,0.00,,,0.18,,2013-06-01 08:42:00,
2013-06-01 04:52:00,69.0,61.0,30.04,SSW,200,1.0,6.0,77,0.00,,,0.18,,2013-06-01 08:52:00,
2013-06-01 05:01:00,69.0,61.0,30.04,South,190,2.0,5.0,77,0.00,,,0.18,,2013-06-01 09:01:00,
2013-06-01 05:12:00,69.0,61.0,30.04,South,190,2.0,5.0,77,0.00,,,0.18,,2013-06-01 09:12:00,
2013-06-01 05:21:00,69.0,62.0,30.04,NE,55,0.0,2.0,78,0.00,,,0.18,,2013-06-01 09:21:00,
2013-06-01 05:33:00,69.0,62.0,30.04,SW,220,1.0,3.0,79,0.00,,,0.18,,2013-06-01 09:33:00,
2013-06-01 05:42:00,69.0,62.0,30.04,SW,220,1.0,3.0,79,0.00,,,0.18,,2013-06-01 09:42:00,
2013-06-01 05:53:00,69.0,62.0,30.04,SE,145,1.0,3.0,79,0.00,,,0.18,,2013-06-01 09:53:00,
2013-06-01 06:02:00,69.0,63.0,30.07,SE,130,1.0,1.0,81,0.00,,,0.18,,2013-06-01 10:02:00,
2013-06-01 06:13:00,69.0,63.0,30.07,SE,130,1.0,1.0,81,0.00,,,0.18,,2013-06-01 10:13:00,
2013-06-01 06:22:00,69.0,63.0,30.04,SE,125,0.0,1.0,82,0.00,,,0.18,,2013-06-01 10:22:00,
2013-06-01 06:33:00,69.0,63.0,30.04,WNW,295,0.0,1.0,81,0.00,,,0.18,,2013-06-01 10:33:00,
2013-06-01 06:42:00,70.0,62.0,30.07,South,180,0.0,1.0,77,0.00,,,0.18,,2013-06-01 10:42:00,
2013-06-01 06:52:00,70.0,62.0,30.07,South,180,0.0,1.0,77,0.00,,,0.18,,2013-06-01 10:52:00,
2013-06-01 07:02:00,71.0,63.0,30.07,SSE,155,0.0,3.0,76,0.00,,,0.18,,2013-06-01 11:02:00,
2013-06-01 07:11:00,71.0,63.0,30.07,SSE,155,0.0,3.0,76,0.00,,,0.18,,2013-06-01 11:11:00,
2013-06-01 07:21:00,74.0,61.0,30.07,ESE,120,1.0,3.0,64,0.00,,,0.18,,2013-06-01 11:21:00,
2013-06-01 07:32:00,76.0,61.0,30.07,WSW,245,1.0,2.0,60,0.00,,,0.18,,2013-06-01 11:32:00,
2013-06-01 07:42:00,77.0,61.0,30.07,South,170,2.0,5.0,57,0.00,,,0.18,,2013-06-01 11:42:00,
2013-06-01 07:52:00,77.0,61.0,30.07,South,170,2.0,5.0,57,0.00,,,0.18,,2013-06-01 11:52:00,
2013-06-01 08:01:00,76.0,61.0,30.07,SE,130,2.0,5.0,60,0.00,,,0.18,,2013-06-01 12:01:00,
2013-06-01 08:12:00,76.0,61.0,30.07,SE,130,2.0,5.0,60,0.00,,,0.18,,2013-06-01 12:12:00,
2013-06-01 08:22:00,77.0,61.0,30.07,South,180,5.0,8.0,58,0.00,,,0.18,,2013-06-01 12:22:00,
2013-06-01 08:32:00,78.0,61.0,30.07,SSE,165,3.0,8.0,56,0.00,,,0.18,,2013-06-01 12:32:00,
2013-06-01 08:42:00,78.0,61.0,30.07,WSW,245,3.0,7.0,56,0.00,,,0.18,,2013-06-01 12:42:00,
2013-06-01 08:52:00,78.0,61.0,30.07,WSW,245,3.0,7.0,56,0.00,,,0.18,,2013-06-01 12:52:00,
2013-06-01 09:01:00,78.0,61.0,30.07,SSW,195,3.0,6.0,56,0.00,,,0.18,,2013-06-01 13:01:00,
2013-06-01 09:11:00,78.0,61.0,30.07,SSW,195,3.0,6.0,56,0.00,,,0.18,,2013-06-01 13:11:00,
2013-06-01 09:22:00,79.0,62.0,30.07,SW,220,5.0,7.0,56,0.00,,,0.18,,2013-06-01 13:22:00,
2013-06-01 09:32:00,78.0,61.0,30.07,East,95,5.0,9.0,56,0.00,,,0.18,,2013-06-01 13:32:00,
2013-06-01 09:42:00,80.0,62.0,30.07,East,100,6.0,9.0,54,0.00,,,0.18,,2013-06-01 13:42:00,
2013-06-01 09:52:00,80.0,62.0,30.07,East,100,6.0,9.0,54,0.00,,,0.18,,2013-06-01 13:52:00,
2013-06-01 10:02:00,80.0,61.0,30.04,East,100,6.0,8.0,53,0.00,,,0.18,,2013-06-01 14:02:00,
2013-06-01 10:11:00,80.0,61.0,30.04,East,100,6.0,8.0,53,0.00,,,0.18,,2013-06-01 14:11:00,
2013-06-01 10:21:00,81.0,62.0,30.04,SSE,165,5.0,8.0,53,0.00,,,0.18,,2013-06-01 14:21:00,
2013-06-01 10:32:00,82.0,61.0,30.04,West,275,6.0,8.0,50,0.00,,,0.18,,2013-06-01 14:32:00,
2013-06-01 10:42:00,82.0,61.0,30.04,West,275,6.0,8.0,50,0.00,,,0.18,,2013-06-01 14:42:00,
2013-06-01 10:52:00,83.0,62.0,30.04,SW,215,5.0,7.0,49,0.00,,,0.18,,2013-06-01 14:52:00,
2013-06-01 11:02:00,84.0,62.0,30.04,SE,140,5.0,6.0,48,0.00,,,0.18,,2013-06-01 15:02:00,
2013-06-01 11:11:00,84.0,62.0,30.04,SE,140,5.0,6.0,48,0.00,,,0.18,,2013-06-01 15:11:00,
2013-06-01 11:21:00,85.0,62.0,30.04,South,175,6.0,7.0,47,0.00,,,0.18,,2013-06-01 15:21:00,
2013-06-01 11:33:00,85.0,62.0,30.04,SSE,160,5.0,5.0,46,0.00,,,0.18,,2013-06-01 15:33:00,
2013-06-01 11:43:00,85.0,62.0,30.04,SSE,160,5.0,5.0,46,0.00,,,0.18,,2013-06-01 15:43:00,
2013-06-01 11:54:00,86.0,63.0,30.04,SE,140,6.0,9.0,46,0.00,,,0.18,,2013-06-01 15:54:00,
2013-06-01 12:03:00,88.0,65.0,30.04,SSE,150,6.0,9.0,47,0.00,,,0.18,,2013-06-01 16:03:00,
2013-06-01 12:12:00,88.0,65.0,30.04,SSE,150,6.0,9.0,47,0.00,,,0.18,,2013-06-01 16:12:00,
2013-06-01 12:23:00,86.0,63.0,30.04,East,100,6.0,9.0,46,0.00,,,0.18,,2013-06-01 16:23:00,
2013-06-01 12:33:00,87.0,64.0,30.04,South,170,6.0,7.0,46,0.00,,,0.18,,2013-06-01 16:33:00,
2013-06-01 12:42:00,87.0,63.0,30.04,SE,125,7.0,10.0,45,0.00,,,0.18,,2013-06-01 16:42:00,
2013-06-01 12:52:00,87.0,63.0,30.04,SE,125,7.0,10.0,45,0.00,,,0.18,,2013-06-01 16:52:00,
2013-06-01 13:02:00,85.0,61.0,30.04,SSE,155,8.0,10.0,45,0.00,,,0.18,,2013-06-01 17:02:00,
2013-06-01 13:12:00,85.0,61.0,30.04,SSE,155,8.0,10.0,45,0.00,,,0.18,,2013-06-01 17:12:00,
2013-06-01 13:22:00,87.0,64.0,30.01,ESE,105,6.0,10.0,47,0.00,,,0.18,,2013-06-01 17:22:00,
2013-06-01 13:32:00,86.0,62.0,30.01,SSW,205,6.0,9.0,45,0.00,,,0.18,,2013-06-01 17:32:00,
2013-06-01 13:42:00,86.0,62.0,30.01,SSW,205,6.0,9.0,45,0.00,,,0.18,,2013-06-01 17:42:00,
2013-06-01 13:52:00,85.0,62.0,30.01,SSE,150,8.0,10.0,46,0.00,,,0.18,,2013-06-01 17:52:00,
2013-06-01 14:01:00,85.0,62.0,30.01,SE,130,7.0,7.0,47,0.00,,,0.18,,2013-06-01 18:01:00,
2013-06-01 14:12:00,85.0,62.0,30.01,SE,130,7.0,7.0,47,0.00,,,0.18,,2013-06-01 18:12:00,
2013-06-01 14:22:00,85.0,62.0,30.01,SSE,165,8.0,12.0,46,0.00,,,0.18,,2013-06-01 18:22:00,
2013-06-01 14:32:00,84.0,62.0,30.01,South,170,9.0,12.0,47,0.00,,,0.18,,2013-06-01 18:32:00,
2013-06-01 14:42:00,84.0,62.0,30.01,South,170,9.0,12.0,47,0.00,,,0.18,,2013-06-01 18:42:00,
2013-06-01 14:52:00,84.0,61.0,30.01,South,175,8.0,10.0,46,0.00,,,0.18,,2013-06-01 18:52:00,
2013-06-01 15:02:00,85.0,62.0,30.01,SE,135,8.0,8.0,46,0.00,,,0.18,,2013-06-01 19:02:00,
2013-06-01 15:11:00,85.0,62.0,29.98,South,175,10.0,15.0,46,0.00,,,0.18,,2013-06-01 19:11:00,
2013-06-01 15:21:00,85.0,62.0,29.98,South,175,10.0,15.0,46,0.00,,,0.18,,2013-06-01 19:21:00,
2013-06-01 15:32:00,85.0,62.0,29.98,SE,125,10.0,10.0,47,0.00,,,0.18,,2013-06-01 19:32:00,
2013-06-01 15:42:00,85.0,62.0,29.98,SE,125,10.0,10.0,47,0.00,,,0.18,,2013-06-01 19:42:00,
2013-06-01 15:52:00,84.0,62.0,29.98,SSE,150,8.0,13.0,47,0.00,,,0.18,,2013-06-01 19:52:00,
2013-06-01 16:02:00,85.0,62.0,29.98,South,170,10.0,13.0,46,0.00,,,0.18,,2013-06-01 20:02:00,
2013-06-01 16:12:00,85.0,62.0,29.98,South,170,10.0,13.0,46,0.00,,,0.18,,2013-06-01 20:12:00,
2013-06-01 16:21:00,82.0,61.0,29.98,SSE,160,10.0,15.0,49,0.00,,,0.18,,2013-06-01 20:21:00,
2013-06-01 16:32:00,89.0,63.0,29.98,SE,145,10.0,14.0,42,0.00,,,0.18,,2013-06-01 20:32:00,
2013-06-01 16:42:00,86.0,61.0,29.98,SSE,165,8.0,14.0,43,0.00,,,0.18,,2013-06-01 20:42:00,
2013-06-01 16:52:00,86.0,61.0,29.98,SSE,165,8.0,14.0,43,0.00,,,0.18,,2013-06-01 20:52:00,
2013-06-01 17:01:00,85.0,61.0,29.98,South,180,9.0,12.0,45,0.00,,,0.18,,2013-06-01 21:01:00,
2013-06-01 17:11:00,84.0,61.0,29.98,SSE,150,7.0,13.0,46,0.00,,,0.17,,2013-06-01 21:11:00,
2013-06-01 17:22:00,84.0,61.0,29.98,SSE,150,7.0,13.0,46,0.00,,,0.17,,2013-06-01 21:22:00,
2013-06-01 17:33:00,85.0,62.0,29.98,SE,145,9.0,13.0,47,0.00,,,0.17,,2013-06-01 21:33:00,
2013-06-01 17:43:00,85.0,62.0,29.98,SE,145,9.0,13.0,47,0.00,,,0.17,,2013-06-01 21:43:00,
2013-06-01 17:53:00,83.0,61.0,29.98,South,170,9.0,12.0,48,0.00,,,0.14,,2013-06-01 21:53:00,
2013-06-01 18:03:00,83.0,61.0,29.98,East,95,8.0,8.0,47,0.00,,,0.14,,2013-06-01 22:03:00,
2013-06-01 18:12:00,82.0,60.0,29.98,SSE,160,7.0,10.0,48,0.00,,,0.14,,2013-06-01 22:12:00,
2013-06-01 18:23:00,82.0,60.0,29.98,SSE,160,7.0,10.0,48,0.00,,,0.14,,2013-06-01 22:23:00,
2013-06-01 18:33:00,82.0,61.0,29.96,SSE,155,6.0,8.0,49,0.00,,,0.14,,2013-06-01 22:33:00,
2013-06-01 18:42:00,80.0,60.0,29.96,ESE,120,9.0,13.0,51,0.03,,,0.17,,2013-06-01 22:42:00,
2013-06-01 18:53:00,80.0,60.0,29.96,ESE,120,9.0,13.0,51,0.03,,,0.17,,2013-06-01 22:53:00,
2013-06-01 19:02:00,79.0,59.0,29.96,SE,145,6.0,6.0,51,0.04,,,0.18,,2013-06-01 23:02:00,
2013-06-01 19:12:00,78.0,60.0,29.96,South,175,8.0,12.0,54,0.04,,,0.18,,2013-06-01 23:12:00,
2013-06-01 19:22:00,78.0,60.0,29.96,South,175,8.0,12.0,54,0.04,,,0.18,,2013-06-01 23:22:00,
2013-06-01 19:32:00,77.0,60.0,29.96,SE,135,8.0,9.0,55,0.04,,,0.18,,2013-06-01 23:32:00,
2013-06-01 19:42:00,77.0,60.0,29.96,SE,135,8.0,9.0,55,0.04,,,0.18,,2013-06-01 23:42:00,
2013-06-01 19:52:00,76.0,59.0,29.96,SE,125,8.0,13.0,56,0.01,,,0.18,,2013-06-01 23:52:00,
2013-06-01 20:02:00,76.0,59.0,29.96,SE,145,7.0,7.0,56,0.00,,,0.18,,2013-06-02 00:02:00,
2013-06-01 20:11:00,76.0,59.0,29.96,SE,145,7.0,7.0,56,0.00,,,0.18,,2013-06-02 00:11:00,
2013-06-01 20:22:00,75.0,60.0,29.96,SE,135,5.0,7.0,59,0.00,,,0.18,,2013-06-02 00:22:00,
2013-06-01 20:32:00,74.0,59.0,29.96,South,175,6.0,12.0,59,0.00,,,0.18,,2013-06-02 00:32:00,
2013-06-01 20:42:00,74.0,59.0,29.96,South,175,6.0,12.0,59,0.00,,,0.18,,2013-06-02 00:42:00,
2013-06-01 20:52:00,74.0,59.0,29.96,South,190,9.0,10.0,60,0.00,,,0.18,,2013-06-02 00:52:00,
2013-06-01 21:01:00,74.0,59.0,29.96,South,170,8.0,12.0,60,0.00,,,0.18,,2013-06-02 01:01:00,
2013-06-01 21:11:00,74.0,59.0,29.96,South,170,8.0,12.0,60,0.00,,,0.18,,2013-06-02 01:11:00,
2013-06-01 21:21:00,73.0,59.0,29.96,East,80,7.0,10.0,61,0.00,,,0.18,,2013-06-02 01:21:00,
2013-06-01 21:32:00,73.0,59.0,29.98,SE,130,6.0,9.0,62,0.00,,,0.18,,2013-06-02 01:32:00,
2013-06-01 21:42:00,72.0,59.0,29.98,East,90,5.0,8.0,64,0.00,,,0.18,,2013-06-02 01:42:00,
2013-06-01 21:52:00,72.0,59.0,29.98,East,90,5.0,8.0,64,0.00,,,0.18,,2013-06-02 01:52:00,
2013-06-01 22:01:00,71.0,59.0,29.98,East,90,5.0,9.0,66,0.00,,,0.18,,2013-06-02 02:01:00,
2013-06-01 22:12:00,71.0,59.0,29.98,East,90,5.0,9.0,66,0.00,,,0.18,,2013-06-02 02:12:00,
2013-06-01 22:21:00,71.0,59.0,29.98,SSE,150,5.0,8.0,67,0.00,,,0.18,,2013-06-02 02:21:00,
2013-06-01 22:32:00,71.0,59.0,29.98,SSE,165,5.0,7.0,67,0.00,,,0.18,,2013-06-02 02:32:00,
2013-06-01 22:42:00,71.0,59.0,29.98,SSE,165,5.0,7.0,67,0.00,,,0.18,,2013-06-02 02:42:00,
2013-06-01 22:52:00,71.0,60.0,29.98,NNE,15,5.0,7.0,68,0.00,,,0.04,,2013-06-02 02:52:00,
2013-06-01 23:02:00,71.0,60.0,29.98,SE,145,5.0,8.0,68,0.00,,,0.04,,2013-06-02 03:02:00,
2013-06-01 23:11:00,71.0,60.0,29.98,SE,145,5.0,8.0,68,0.00,,,0.04,,2013-06-02 03:11:00,
2013-06-01 23:21:00,70.0,59.0,29.98,SSE,160,5.0,7.0,69,0.00,,,0.04,,2013-06-02 03:21:00,
2013-06-01 23:33:00,70.0,60.0,29.98,East,90,3.0,6.0,70,0.00,,,0.04,,2013-06-02 03:33:00,
2013-06-01 23:43:00,70.0,60.0,29.98,East,90,3.0,6.0,70,0.00,,,0.04,,2013-06-02 03:43:00,
2013-06-01 23:53:00,70.0,61.0,29.98,SE,125,5.0,6.0,72,0.00,,,0.04,,2013-06-02 03:53:00,